Terug naar catalogus

NOAA 16 DEB

ActiefSSO
NORAD 41285·DEBRIS·🇺🇸 United States

Gelanceerd Sep 21, 2000 vanaf Vandenberg Space Force Base

Loading…

Volgende Passages (komende 24 uur)

TLE

VersSource: Space-Track

Epoch: Sep 14, 2026, 09:59 UTC

1 41285U 00055GM  26257.41657207  .00002018  00000-0  82698-3 0  9991
2 41285  98.6569 323.4747 0050772 109.3461 251.3219 14.27545165554210

Volg NOAA 16 DEB in realtime met AllMySat

Download on the App Store